Location: Mat�lon
(46.2791°N, 7.1028°E)
Time: 02:01:36
(UTC+00:00)

Cosmos 2034 Rocket - Pass Details

Date: 18 September 2020
Orbit: 957 x 1002 km, 82.9° (Epoch: 29 October)

Event Time Altitude Azimuth Distance (km) Brightness Sun altitude
Rises 18:53:25 0° 170° (S) 3,711 6.8 -13.9°
Reaches altitude 10° 18:56:00 10° 166° (SSE) 2,766 6.1 -14.3°
Maximum altitude 19:02:09 53° 91° (E) 1,211 4.1 -15.3°
Drops below altitude 10° 19:08:18 10° 17° (NNE) 2,771 6.4 -16.3°
Sets 19:10:52 0° 13° (NNE) 3,719 7.1 -16.8°
